Location: Spring Creek
(38.2870°N, 100.2160°W)
Time: 06:43:38
(UTC+00:00)

Cosmos 2263 Rocket - Pass Details

Date: 08 May 2021
Orbit: 822 x 850 km, 71.0° (Epoch: 21 June)

Event Time Altitude Azimuth Distance (km) Brightness Sun altitude
Rises 02:25:40 0° 228° (SW) 3,343 5.5 -9.1°
Reaches altitude 10° 02:28:20 10° 238° (WSW) 2,415 5.0 -9.6°
Maximum altitude 02:33:15 32° 301° (WNW) 1,378 4.2 -10.4°
Drops below altitude 10° 02:38:13 10° 4° (N) 2,435 5.0 -11.2°
Sets 02:40:56 0° 14° (NNE) 3,376 5.6 -11.7°
